Weather History for Abu Dhabi International Airport, UAE

Change the Weather History Date:

Friday, May 17, 2013

  Actual Average Record
Temperature  
Mean Temperature 94 °F -  
Max Temperature 108 °F 102 °F - ()
Min Temperature 80 °F 76 °F - ()
Cooling Degree Days 29    
Growing Degree Days 44 (Base 50)    
Moisture  
Dew Point 50 °F    
Average Humidity 24    
Maximum Humidity 55    
Minimum Humidity 5    
Precipitation  
Precipitation 0.00 in 0.00 in - ()
Sea Level Pressure  
Sea Level Pressure 29.69 in    
Wind  
Wind Speed 7 mph ()    
Max Wind Speed 20 mph    
Max Gust Speed 28 mph    
Visibility 4.8 miles    
Events      
T = Trace of Precipitation, MM = Missing Value Source: Averaged Metar Reports

Daily Weather History Graph

Daily Weather History Graph

Search for Another Location

Airport:

Trip Planner

Search our weather history database for the weather conditions in past years. The results will help you decide how hot, cold, wet, or windy it might be!

Date:

Astronomy

May. 17, 2013 Rise Set
Actual Time 5:37 AM GST 6:58 PM GST
Civil Twilight 5:12 AM GST 7:23 PM GST
Nautical Twilight 4:43 AM GST 7:52 PM GST
Astronomical Twilight 4:12 AM GST 8:23 PM GST
Moon 11:30 AM GST (5/17) No Moon Set
Length of Visible Light 14h 10m
Length of Day
13h 21m
Waxing Crescent, 42% of the Moon is Illuminated
May 17
Waxing Crescent
May 18
First Quarter
May 25
Full
May 31
Last Quarter
Jun 8
New

Hourly Weather History & Observations

Time (GST) Temp. Heat Index Dew Point Humidity Pressure Visibility Wind Dir Wind Speed Gust Speed Precip Events Conditions
12:00 AM 91.4 °F - 48.2 °F 23% 29.65 in - South 5.8 mph - N/A   Clear
1:00 AM 89 °F - 47 °F 14% 29.65 in 6 mi South 3.5 mph - -  
1:00 AM 89.6 °F - 46.4 °F 22% 29.65 in - South 3.5 mph - N/A   Clear
2:00 AM 82.4 °F - 48.2 °F 30% 29.65 in - Calm Calm - N/A   Clear
3:00 AM 84.2 °F - 48.2 °F 29% 29.65 in - ESE 9.2 mph - N/A   Clear
4:00 AM 83 °F - 44 °F 16% 29.65 in 6 mi SE 8.1 mph - -  
4:00 AM 82.4 °F - 44.6 °F 26% 29.65 in - SE 8.1 mph - N/A   Clear
5:00 AM 82.4 °F - 41.0 °F 23% 29.65 in - SE 5.8 mph - N/A   Clear
6:00 AM 82.4 °F - 41.0 °F 23% 29.65 in - SE 8.1 mph - N/A   Clear
7:00 AM 84 °F - 39 °F 12% 29.68 in 6 mi SE 5.8 mph - -  
7:00 AM 84.2 °F - 39.2 °F 20% 29.68 in - SE 5.8 mph - N/A   Clear
8:00 AM 91.4 °F - 35.6 °F 14% 29.71 in 5.0 mi ESE 5.8 mph - N/A   Unknown
9:00 AM 95.0 °F - 37.4 °F 13% 29.71 in 5.0 mi SSE 6.9 mph - N/A   Unknown
10:00 AM 102 °F - 36 °F 5% 29.72 in 5 mi SSE 8.1 mph - -   Widespread Dust
10:00 AM 102.2 °F - 35.6 °F 10% 29.71 in 5.0 mi SSE 8.1 mph - N/A   Unknown
10:04 AM 102.2 °F - 35.6 °F 10% 29.74 in 2.8 mi WNW 11.5 mph - N/A   Unknown
10:13 AM 100.4 °F - 39.2 °F 12% 29.71 in 1.8 mi Variable 3.5 mph 27.6 mph N/A   Unknown
10:34 AM 104.0 °F - 37.4 °F 10% 29.74 in 2.8 mi WSW 5.8 mph - N/A   Unknown
11:00 AM 105.8 °F - 39.2 °F 10% 29.74 in 3.7 mi WSW 5.8 mph - N/A   Unknown
12:00 PM 107.6 °F - 35.6 °F 8% 29.71 in 4.3 mi West 6.9 mph - N/A   Unknown
1:00 PM 107 °F - 43 °F 6% 29.70 in 5 mi NW 9.2 mph - -   Widespread Dust
1:00 PM 107.6 °F - 42.8 °F 11% 29.68 in 5.0 mi NW 9.2 mph - N/A   Unknown
2:00 PM 107.6 °F - 44.6 °F 12% 29.68 in 5.6 mi WNW 13.8 mph - N/A   Unknown
3:00 PM 102.2 °F - 50.0 °F 17% 29.68 in 4.3 mi WNW 19.6 mph - N/A   Unknown
4:00 PM 97 °F - 71 °F 34% 29.69 in 5 mi WNW 18.4 mph - -   Widespread Dust
4:00 PM 96.8 °F 105.1 °F 71.6 °F 44% 29.68 in 5.0 mi WNW 18.4 mph - N/A   Unknown
5:00 PM 95.0 °F 94.4 °F 59.0 °F 30% 29.68 in 5.6 mi NW 18.4 mph - N/A   Unknown
6:00 PM 93.2 °F 94.9 °F 64.4 °F 38% 29.71 in - NW 17.3 mph - N/A   Clear
7:00 PM 91 °F - 64 °F 31% 29.71 in 6 mi NW 15.0 mph - -   Widespread Dust
7:00 PM 91.4 °F 93.2 °F 64.4 °F 41% 29.71 in 5.6 mi NW 15.0 mph - N/A   Unknown
8:00 PM 89.6 °F 94.7 °F 69.8 °F 52% 29.71 in - NW 11.5 mph - N/A   Clear
9:00 PM 87.8 °F 92.6 °F 69.8 °F 55% 29.74 in - NW 11.5 mph - N/A   Clear
10:00 PM 87 °F - 70 °F 48% 29.75 in 6 mi NW 9.2 mph - -  
10:00 PM 87.8 °F 92.6 °F 69.8 °F 55% 29.74 in - NW 9.2 mph - N/A   Clear
11:00 PM 87.8 °F 91.4 °F 68.0 °F 52% 29.74 in - WNW 6.9 mph - N/A   Clear